Kwethluk AP, Kwethluk, AK, AK

11:17 AM AKDT on September 22, 2019 (GMT -0800)
Kwethluk AP, Kwethluk, AK

Weather History for PFKW - August, 2019

Change the Weather History Date:

Wednesday, August 21, 2019

  Actual Average (WUND) Record (WUND)
Temperature  
Mean Temperature 54 °F -  
Max Temperature 66 °F - - (-1)
Min Temperature 41 °F - - (-1)
Degree Days  
Heating Degree Days 12    
Growing Degree Days 4 (Base 50)    
Moisture  
Dew Point 44 °F    
Average Humidity 84    
Maximum Humidity 100    
Minimum Humidity 38    
Precipitation  
Precipitation 0.00 in - - ()
Sea Level Pressure  
Sea Level Pressure 29.74 in    
Wind  
Wind Speed 2 mph (NNE)    
Max Wind Speed 7 mph    
Max Gust Speed -    
Visibility 6 miles    
Events Fog    
Averages and records for this station are not official NWS values.
T = Trace of Precipitation, MM = Missing Value Source: NWS Daily Summary

Daily Weather History Graph

Daily Weather History Graph

Search for Another Location

Airport or City:

Astronomy

Aug. 21, 2019 Rise Set
Actual Time 7:11 AM AKDT 10:24 PM AKDT
Civil Twilight 6:20 AM AKDT 11:14 PM AKDT
Nautical Twilight 5:09 AM AKDT 12:25 AM AKDT
Astronomical Twilight 3:21 AM AKDT 2:16 AM AKDT
Moon 12:00 AM AKDT (8/21) 2:31 PM AKDT (8/21)
Length of Visible Light 16h 53m
Length of Day
15h 13m
Waning Gibbous, 68% of the Moon is Illuminated
Aug 21
Waning Gibbous
Aug 23
Last Quarter
Aug 30
New
Sep 5
First Quarter
Sep 13
Full

Hourly Weather History & Observations

Time (AKDT) Temp. Windchill Dew Point Humidity Pressure Visibility Wind Dir Wind Speed Gust Speed Precip Events Conditions
12:56 AM 48.0 °F - 44.1 °F 86% 29.77 in 10.0 mi NNE 4.6 mph - N/A   Clear
1:56 AM 46.9 °F - 44.1 °F 90% 29.78 in 10.0 mi East 3.5 mph - N/A   Clear
2:56 AM 45.0 °F - 44.1 °F 97% 29.78 in 6.0 mi Calm Calm - N/A   Clear
3:04 AM 42.8 °F 41.1 °F 42.8 °F 100% 29.78 in 2.5 mi South 3.5 mph - N/A   Clear
3:56 AM 45.0 °F - 44.1 °F 97% 29.78 in 10.0 mi Calm Calm - N/A   Clear
4:18 AM 42.8 °F - 42.8 °F 100% 29.78 in 1.8 mi Calm Calm - N/A   Clear
4:21 AM 44.6 °F - 44.6 °F 100% 29.78 in 0.8 mi Calm Calm - N/A   Clear
4:27 AM 44.6 °F - 44.6 °F 100% 29.78 in 1.2 mi Calm Calm - N/A   Clear
4:35 AM 44.6 °F - 42.8 °F 93% 29.78 in 9.0 mi Calm Calm - N/A   Clear
4:56 AM 44.1 °F - 44.1 °F 100% 29.78 in 4.0 mi Calm Calm - N/A   Clear
4:58 AM 44.6 °F - 42.8 °F 93% 29.77 in 1.8 mi Calm Calm - N/A   Clear
5:03 AM 42.8 °F - 42.8 °F 100% 29.77 in 0.8 mi Calm Calm - N/A   Clear
5:38 AM 42.8 °F - 42.8 °F 100% 29.77 in 2.0 mi Calm Calm - N/A   Clear
5:42 AM 42.8 °F - 42.8 °F 100% 29.77 in 1.0 mi Calm Calm - N/A   Clear
5:49 AM 42.8 °F - 42.8 °F 100% 29.77 in 0.5 mi Calm Calm - N/A Fog Fog
5:56 AM 42.1 °F - 42.1 °F 100% 29.77 in 0.5 mi Calm Calm - N/A Fog Fog
6:28 AM 42.8 °F - 42.8 °F 100% 29.77 in 0.8 mi Calm Calm - N/A   Mist
6:34 AM 42.8 °F - 41.0 °F 93% 29.77 in 0.2 mi Calm Calm - N/A Fog Fog
6:56 AM 41.0 °F - 41.0 °F 100% 29.77 in 0.2 mi Calm Calm - N/A Fog Fog
8:56 AM 44.1 °F 42.5 °F 44.1 °F 100% 29.76 in 0.8 mi SSE 3.5 mph - N/A   Mostly Cloudy
9:03 AM 44.6 °F 43.1 °F 44.6 °F 100% 29.76 in 1.0 mi South 3.5 mph - N/A   Mostly Cloudy
9:12 AM 46.4 °F 45.2 °F 46.4 °F 100% 29.76 in 2.5 mi South 3.5 mph - N/A   Mostly Cloudy
9:19 AM 46.4 °F 44.3 °F 46.4 °F 100% 29.76 in 10.0 mi South 4.6 mph - N/A   Scattered Clouds
9:56 AM 50.0 °F - 48.9 °F 96% 29.76 in 10.0 mi SSW 4.6 mph - N/A   Clear
10:56 AM 54.0 °F - 50.0 °F 86% 29.75 in 10.0 mi Calm Calm - N/A   Clear
11:56 AM 57.0 °F - 50.0 °F 77% 29.75 in 10.0 mi Calm Calm - N/A   Clear
12:56 PM 61.0 °F - 48.0 °F 62% 29.74 in 10.0 mi NNE 3.5 mph - N/A   Clear
1:56 PM 63.0 °F - 43.0 °F 48% 29.72 in 10.0 mi North 4.6 mph - N/A   Clear
2:56 PM 63.0 °F - 43.0 °F 48% 29.71 in 10.0 mi Variable 3.5 mph - N/A   Clear
3:56 PM 66.0 °F - 42.1 °F 42% 29.70 in 10.0 mi NNE 6.9 mph - N/A   Clear
4:56 PM 64.9 °F - 41.0 °F 42% 29.68 in 10.0 mi NNW 3.5 mph - N/A   Clear
5:56 PM 66.0 °F - 39.9 °F 38% 29.67 in 10.0 mi North 5.8 mph - N/A   Clear
7:56 PM 64.9 °F - 42.1 °F 43% 29.65 in 10.0 mi NE 4.6 mph - N/A   Clear
8:56 PM 63.0 °F - 46.0 °F 54% 29.64 in 10.0 mi North 5.8 mph - N/A   Clear
9:56 PM 57.9 °F - 46.9 °F 67% 29.64 in 10.0 mi NNW 5.8 mph - N/A   Clear
10:56 PM 55.0 °F - 46.0 °F 72% 29.64 in 10.0 mi North 5.8 mph - N/A   Clear
11:56 PM 52.0 °F - 45.0 °F 77% 29.63 in 10.0 mi North 5.8 mph - N/A   Clear